GALAXY 31 (G-31)

Last updated on Thu Oct 30 2025 00:02:52 GMT+0000 (Coordinated Universal Time)

1 54243U 22153A 25302.52908882 .00000023 00000+0 00000+0 0 9998 2 54243 0.0167 239.9918 0001562 350.4789 237.1410 1.00273034 4827
UTC large
Height (km)
Speed (km/s)
/
Latitude / Longitude
Inclination (degrees)
Orbital Period (minutes)
Azimuth
Elevation
Range (km)
Doppler Factor

Next 0 passes for location: London (51.5072 / 0.1276)

Sorry there are no passes over London.